Voltar ao catálogo

FENGYUN 1C DEB

AtivoSSO
NORAD 32343·DEBRIS·🇨🇳 China

Lançado May 10, 1999 de Taiyuan Satellite Launch Center

Loading…

Próximas Passagens (próximas 24 horas)

TLE

AtualizadoSource: Space-Track

Época: Sep 14, 2026, 05:13 UTC

1 32343U 99025CYL 26257.21798632  .00000530  00000-0  23867-3 0  9997
2 32343  98.6337 242.1082 0151938  52.0167 309.4622 14.20257187686238

Acompanhe FENGYUN 1C DEB em tempo real com AllMySat

Download on the App Store